This demonstration page uses our WeatherBlox Daily Observations layout. Learn more.

Left ArrowRight Arrow

39.12711, -84.51439

Hourly Observations for April 1, 2021

Temp ( °F °C ) Dew Point ( °F °C ) Humidity (%) Winds ( mph kmh ) Pressure ( in mb ) Visibility ( mi km ) Precip ( " mm )
12:53 am 00:53 Clear 39 3.9 18 -7.8 43 43 NW 9 15 30.29 1026 10 16 N/A
1:53 am 01:53 Cloudy 38 3.3 18 -7.8 44 44 WNW 10 17 30.29 1026 10 16 N/A
2:53 am 02:53 Mostly Cloudy 36 2.2 18 -7.8 48 48 WNW 7 11 30.28 1026 10 16 N/A
3:53 am 03:53 Mostly Cloudy 35 1.7 20 -6.7 54 54 NW 6 9 30.28 1025 10 16 N/A
4:53 am 04:53 Cloudy 35 1.7 20 -6.7 54 54 WNW 8 13 30.27 1025 10 16 N/A
5:53 am 05:53 Mostly Cloudy 33 0.6 21 -6.1 61 61 NW 8 13 30.28 1025 10 16 N/A
6:53 am 06:53 Cloudy 34 1.1 22 -5.6 61 61 NNW 9 15 30.30 1026 10 16 N/A
7:53 am 07:53 Mostly Cloudy 33 0.6 20 -6.7 58 58 NW 6 9 30.32 1027 10 16 0.00 0.00
8:53 am 08:53 Mostly Cloudy 34 1.1 21 -6.1 59 59 NNW 6 9 30.34 1028 10 16 N/A
9:53 am 09:53 Mostly Cloudy 37 2.8 22 -5.6 54 54 NNW 10 17 30.36 1028 10 16 N/A
10:36 am 10:36 Cloudy with Light Snow 34 1.1 23 -5 64 64 N 17 28 30.41 1030 2 3 0.00 0.00
10:47 am 10:47 Cloudy with Light Snow 30 -1 27 -3 86 86 N 15 24 30.42 1030 2 3 0.00 0.00
10:53 am 10:53 Cloudy with Snow 31 -0.6 28 -2.2 89 89 N 12 19 30.40 1030 1 1 0.00 0.00
10:55 am 10:55 Cloudy with Heavy Snow 31 -0.6 28 -2.2 89 89 N 8 13 30.42 1030 0 0 0.00 0.00
11:01 am 11:01 Mostly Cloudy with Light Snow 32 undefined 27 -2.8 82 82 NNW 6 9 30.42 1030 7 11 0.00 0.00
11:23 am 11:23 Cloudy 35 1.7 28 -2.2 76 76 NNW 8 13 30.42 1030 10 16 0.00 0.00
11:53 am 11:53 Mostly Cloudy 37 2.8 25 -3.9 62 62 NNW 10 17 30.41 1030 10 16 0.00 0.00
12:53 pm 12:53 Cloudy 38 3.3 21 -6.1 51 51 NNW 12 19 30.40 1030 10 16 N/A
1:09 pm 13:09 Cloudy 37 2.8 23 -5 57 57 NNW 12 19 30.42 1030 10 16 N/A
1:53 pm 13:53 Cloudy 38 3.3 20 -6.7 48 48 NW 15 24 30.42 1030 10 16 N/A
2:53 pm 14:53 Cloudy 37 2.8 17 -8.3 44 44 NNW 12 19 30.43 1030 10 16 N/A
3:53 pm 15:53 Cloudy 37 2.8 16 -8.9 42 42 N 15 24 30.42 1030 10 16 N/A
4:53 pm 16:53 Cloudy 37 2.8 15 -9.4 41 41 NNW 16 26 30.43 1030 10 16 N/A
5:53 pm 17:53 Cloudy 36 2.2 16 -8.9 44 44 NNW 10 17 30.44 1031 10 16 N/A
6:53 pm 18:53 Cloudy 36 2.2 18 -7.8 48 48 NW 8 13 30.45 1031 10 16 N/A
7:53 pm 19:53 Cloudy 36 2.2 18 -7.8 48 48 NW 13 20 30.46 1031 10 16 N/A
8:53 pm 20:53 Cloudy 34 1.1 20 -6.7 56 56 NNW 7 11 30.46 1032 10 16 N/A
9:53 pm 21:53 Mostly Cloudy 34 1.1 21 -6.1 59 59 NW 10 17 30.48 1032 10 16 N/A
10:53 pm 22:53 Cloudy 35 1.7 21 -6.1 57 57 NNW 8 13 30.49 1033 10 16 N/A
11:53 pm 23:53 Cloudy 33 0.6 20 -6.7 58 58 NNE 6 9 30.49 1032 10 16 N/A

Powered by AerisWeather